EW3845 Weather Reports


Display with metric or nautical units.
time (UTC)temp
F
wind
direction
speed
MPH
gust
MPH
rain 1hr
in
rain 24hr
in
rain mn
in
humidity
%
barometer
mb
20260906204601 66 254 0.0 0.0 0.00 0.00 0.00 68 1020.4
20260906203051 66 150 0.0 0.0 0.00 0.00 0.00 68 1020.4
20260906201554 67 170 0.0 0.0 0.00 0.00 0.00 68 1020.5
20260906200051 67 115 0.0 0.0 0.00 0.00 0.00 67 1020.7
20260906194547 67 114 0.0 0.0 0.00 0.00 0.00 66 1020.8
20260906193046 68 92 0.0 0.0 0.00 0.00 0.00 65 1020.9
20260906192044 69 93 0.0 0.0 0.00 0.00 0.00 65 1021.0
20260906191658 68 90 0.0 0.0 0.00 0.00 0.00 65 1020.8
20260906191556 69 90 0.0 0.0 0.00 0.00 0.00 65 1021.0
20260906191042 69 13 0.0 0.0 0.00 0.00 0.00 64 1021.1
20260906190555 69 13 0.0 0.0 0.00 0.00 0.00 64 1021.2
20260906190144 69 13 0.0 0.0 0.00 0.00 0.00 64 1021.1
20260906190043 69 13 0.0 0.0 0.00 0.00 0.00 64 1021.3
20260906185555 69 21 0.0 0.0 0.00 0.00 0.00 64 1021.3
20260906185040 70 36 0.0 0.0 0.00 0.00 0.00 64 1021.2
20260906184652 69 33 0.0 0.0 0.00 0.00 0.00 63 1021.0
20260906184551 70 33 0.0 0.0 0.00 0.00 0.00 63 1021.2
20260906184117 70 17 0.0 0.0 0.00 0.00 0.00 63 1021.2
20260906183548 70 14 0.0 0.0 0.00 0.00 0.00 62 1021.3
20260906183153 70 19 0.0 0.0 0.00 0.00 0.00 62 1021.1
20260906183052 70 19 0.0 0.0 0.00 0.00 0.00 62 1021.3
20260906182544 70 19 0.0 0.0 0.00 0.00 0.00 62 1021.3
20260906182050 70 19 0.0 0.0 0.00 0.00 0.00 61 1021.3
20260906181645 70 19 0.0 0.0 0.00 0.00 0.00 61 1021.1
20260906181542 71 19 0.0 0.0 0.00 0.00 0.00 61 1021.3
20260906181050 71 16 0.0 0.0 0.00 0.00 0.00 60 1021.3
20260906180541 71 16 0.0 0.0 0.00 0.00 0.00 60 1021.4
20260906180148 71 16 0.0 0.0 0.00 0.00 0.00 60 1021.3
20260906180047 71 16 0.0 0.0 0.00 0.00 0.00 60 1021.4
20260906175620 72 17 0.0 0.0 0.00 0.00 0.00 59 1021.4
20260906175044 72 17 0.0 0.0 0.00 0.00 0.00 59 1021.5
20260906174616 72 98 0.0 0.0 0.00 0.00 0.00 59 1021.4
20260906174041 73 115 0.0 0.0 0.00 0.00 0.00 58 1021.3
20260906173554 73 16 0.0 0.0 0.00 0.00 0.00 57 1021.4
20260906173143 73 21 0.0 0.0 0.00 0.00 0.00 57 1021.2
20260906173042 73 20 0.0 0.0 0.00 0.00 0.00 57 1021.4
20260906172611 73 13 0.0 0.0 0.00 0.00 0.00 57 1021.4
20260906172038 73 5 0.0 0.0 0.00 0.00 0.00 57 1021.4
20260906171609 73 28 0.0 0.0 0.00 0.00 0.00 57 1021.5
20260906171055 73 13 0.0 0.0 0.00 0.00 0.00 56 1021.6
20260906170546 74 21 0.0 0.0 0.00 0.00 0.00 56 1021.6
20260906170154 73 46 0.0 0.0 0.00 0.00 0.00 56 1021.6
20260906170053 74 59 0.0 0.0 0.00 0.00 0.00 55 1021.7
20260906165543 74 130 0.0 0.0 0.00 0.00 0.00 55 1021.7
20260906165050 74 61 0.0 0.0 0.00 0.00 0.00 55 1021.7
20260906164644 74 81 0.0 0.0 0.00 0.00 0.00 54 1021.6
20260906164543 74 68 0.0 0.0 0.00 0.00 0.00 54 1021.7
20260906164049 75 146 0.0 0.0 0.00 0.00 0.00 54 1021.8
20260906163544 75 190 0.0 0.0 0.00 0.00 0.00 54 1021.9
20260906163050 75 19 0.0 0.0 0.00 0.00 0.00 53 1021.9
20260906163003 74 19 0.0 0.0 0.00 0.00 0.00 53 1021.8
20260906162602 75 19 0.0 0.0 0.00 0.00 0.00 51 1021.9
20260906162050 75 15 0.0 0.0 0.00 0.00 0.00 51 1021.9
20260906161616 75 22 0.0 0.0 0.00 0.00 0.00 51 1022.0
20260906161045 75 5 0.0 0.0 0.00 0.00 0.00 50 1022.0
20260906160557 75 117 0.0 0.0 0.00 0.00 0.00 51 1022.0
20260906160042 75 41 0.0 0.0 0.00 0.00 0.00 50 1022.1
20260906155553 75 31 0.0 0.0 0.00 0.00 0.00 50 1022.1
20260906155040 75 184 0.0 0.0 0.00 0.00 0.00 49 1022.1
20260906154612 75 182 0.0 0.0 0.00 0.00 0.00 48 1022.1
20260906154508 74 30 0.0 0.0 0.00 0.00 0.00 49 1022.0
20260906154039 75 9 0.0 0.0 0.00 0.00 0.00 50 1022.1
20260906153552 75 263 0.0 0.0 0.00 0.00 0.00 49 1022.1
20260906153139 74 355 0.0 0.0 0.00 0.00 0.00 49 1021.9
20260906153039 75 355 0.0 0.0 0.00 0.00 0.00 50 1022.1
20260906152553 75 355 0.0 0.0 0.00 0.00 0.00 50 1022.3
20260906152101 75 176 0.0 0.0 0.00 0.00 0.00 51 1022.3
20260906151652 74 20 0.0 0.0 0.00 0.00 0.00 51 1022.2
20260906151549 75 84 0.0 0.0 0.00 0.00 0.00 51 1022.3
20260906151057 75 175 0.0 0.0 0.00 0.00 0.00 51 1022.5
20260906150546 74 132 0.0 0.0 0.00 0.00 0.00 50 1022.5
20260906150053 74 31 0.0 0.0 0.00 0.00 0.00 50 1022.5
20260906150010 74 242 0.0 0.0 0.00 0.00 0.00 51 1022.5
20260906145602 74 348 0.0 0.0 0.00 0.00 0.00 51 1022.6
20260906145050 74 140 0.0 0.0 0.00 0.00 0.00 51 1022.6
20260906144601 74 161 0.0 0.0 0.00 0.00 0.00 52 1022.7
20260906144050 74 178 0.0 0.0 0.00 0.00 0.00 52 1022.8
20260906143601 74 23 0.0 0.0 0.00 0.00 0.00 52 1022.7
20260906143151 73 34 0.0 0.0 0.00 0.00 0.00 53 1022.7
20260906143049 74 86 0.0 0.0 0.00 0.00 0.00 54 1022.8
20260906142633 74 108 0.0 0.0 0.00 0.00 0.00 54 1022.9
20260906141538 73 155 0.0 0.0 0.00 0.00 0.00 53 1022.8
20260906140036 73 101 0.0 0.0 0.00 0.00 0.00 53 1022.9
20260906134534 73 360 0.0 0.0 0.00 0.00 0.00 51 1023.2
20260906133031 73 173 0.0 0.0 0.00 0.00 0.00 55 1023.4
20260906131528 73 17 0.0 0.0 0.00 0.00 0.00 54 1023.7
20260906130026 73 19 0.0 0.0 0.00 0.00 0.00 54 1023.8
20260906124523 73 173 0.0 0.0 0.00 0.00 0.00 55 1024.1
20260906123037 73 185 0.0 0.0 0.00 0.00 0.00 54 1024.3
20260906121519 73 117 0.0 0.0 0.00 0.00 0.00 53 1024.5
20260906120017 72 28 0.0 0.0 0.00 0.00 0.00 56 1024.5
20260906114516 72 180 0.0 0.0 0.00 0.00 0.00 57 1024.7
20260906113012 71 20 0.0 0.0 0.00 0.00 0.00 59 1024.9
20260906111509 70 32 0.0 0.0 0.00 0.00 0.00 59 1025.1
20260906110006 70 185 0.0 0.0 0.00 0.00 0.00 60 1025.3
20260906104503 69 12 0.0 0.0 0.00 0.00 0.00 59 1025.4
20260906103001 69 176 0.0 0.0 0.00 0.00 0.00 62 1025.5
20260906101558 68 17 0.0 0.0 0.00 0.00 0.00 63 1025.5
20260906100100 68 23 0.0 0.0 0.00 0.00 0.00 64 1025.7
20260906094553 67 186 0.0 0.0 0.00 0.00 0.00 67 1026.0
20260906093057 66 61 0.0 0.0 0.00 0.00 0.00 68 1026.3
20260906091548 65 18 0.0 0.0 0.00 0.00 0.00 73 1026.2
20260906090058 64 77 0.0 0.0 0.00 0.00 0.00 77 1026.4
20260906084539 62 69 0.0 0.0 0.00 0.00 0.00 80 1026.7
20260906083038 61 31 0.0 0.0 0.00 0.00 0.00 83 1026.7
20260906081532 60 15 0.0 0.0 0.00 0.00 0.00 85 1026.6
20260906080028 59 360 0.0 0.0 0.00 0.00 0.00 87 1026.6
20260906074526 58 355 0.0 0.0 0.00 0.00 0.00 89 1026.5
20260906073022 57 355 0.0 0.0 0.00 0.00 0.00 91 1026.4
20260906071519 56 355 0.0 0.0 0.00 0.00 0.00 92 1026.4
20260906070017 55 238 0.0 0.0 0.00 0.00 0.00 92 1026.4
20260906064516 54 229 0.0 0.0 0.00 0.00 0.00 92 1026.3
20260906063021 53 230 0.0 0.0 0.00 0.00 0.00 93 1026.2
20260906061514 52 313 0.0 0.0 0.00 0.00 0.00 93 1026.2
20260906060014 52 315 0.0 0.0 0.00 0.00 0.00 92 1026.1
20260906054510 51 360 0.0 0.0 0.00 0.00 0.00 92 1026.1
20260906053009 51 360 0.0 0.0 0.00 0.00 0.00 92 1026.2
20260906051510 51 360 0.0 0.0 0.00 0.00 0.00 92 1026.4
20260906050008 51 360 0.0 0.0 0.00 0.00 0.00 92 1026.4
20260906044506 51 360 0.0 0.0 0.00 0.00 0.00 92 1026.4
20260906043006 51 360 0.0 0.0 0.00 0.00 0.00 91 1026.3
20260906041507 52 360 0.0 0.0 0.00 0.00 0.00 92 1026.2
20260906040014 51 360 0.0 0.0 0.00 0.00 0.00 91 1026.1
20260906034504 51 360 0.0 0.0 0.00 0.00 0.00 91 1025.9
20260906033004 51 360 0.0 0.0 0.00 0.00 0.00 91 1026.1
20260906031502 52 360 0.0 0.0 0.00 0.00 0.00 91 1026.7
20260906030001 52 360 0.0 0.0 0.00 0.00 0.00 90 1026.7
20260906024559 52 360 0.0 0.0 0.00 0.00 0.00 90 1026.4
20260906023059 52 360 0.0 0.0 0.00 0.00 0.00 90 1026.3
20260906021603 52 360 0.0 0.0 0.00 0.00 0.00 90 1026.3
20260906020105 52 360 0.0 0.0 0.00 0.00 0.00 89 1026.1
20260906014556 52 360 0.0 0.0 0.00 0.00 0.00 89 1026.4
20260906013104 52 360 0.0 0.0 0.00 0.00 0.00 89 1026.3
20260906011554 53 360 0.0 0.0 0.00 0.00 0.00 89 1026.2
20260906010054 53 360 0.0 0.0 0.00 0.00 0.00 89 1025.9
20260906004552 53 360 0.0 0.0 0.00 0.00 0.00 88 1026.0
20260906003051 53 360 0.0 0.0 0.00 0.00 0.00 88 1026.1
20260906001550 53 360 0.0 0.0 0.00 0.00 0.00 88 1026.1
20260906000100 53 360 0.0 0.0 0.00 0.00 0.00 88 1026.2
20260905234556 53 360 0.0 0.0 0.00 0.00 0.00 87 1026.2
20260905233047 54 360 0.0 0.0 0.00 0.00 0.00 87 1026.2
20260905231545 54 360 0.0 0.0 0.00 0.00 0.00 87 1026.0
20260905230044 54 360 0.0 0.0 0.00 0.00 0.00 86 1026.0
20260905224542 54 360 0.0 0.0 0.00 0.00 0.00 86 1026.0
20260905223045 54 360 0.0 0.0 0.00 0.00 0.00 85 1025.9
20260905221538 55 360 0.0 0.0 0.00 0.00 0.00 84 1025.7
20260905220038 55 360 0.0 0.0 0.00 0.00 0.00 84 1025.7
20260905214533 56 360 0.0 0.0 0.00 0.00 0.00 83 1025.7
20260905213031 56 360 0.0 0.0 0.00 0.00 0.00 83 1025.5
20260905211529 56 360 0.0 0.0 0.00 0.00 0.00 82 1025.4
20260905210043 57 360 0.0 0.0 0.00 0.00 0.00 81 1025.3